This demonstration page uses our WeatherBlox Daily Observations layout. Learn more.

Left ArrowRight Arrow

39.01783, -85.05884

Hourly Observations for July 13, 2020

Temp ( °F °C ) Dew Point ( °F °C ) Humidity (%) Winds ( mph kmh ) Pressure ( in mb ) Visibility ( mi km ) Precip ( " mm )
12:52 am 00:52 Clear 66 18.9 61 16.1 84 84 NNW 3 6 29.88 1012 10 16 0.00 0.00
1:52 am 01:52 Clear 67 19.4 61 16.1 81 81 NNW 3 6 29.88 1012 10 16 0.00 0.00
2:52 am 02:52 Clear 65 18.3 60 15.6 84 84 NW 5 7 29.87 1012 10 16 0.00 0.00
3:52 am 03:52 Clear 63 17.2 61 16.1 93 93 Calm 29.86 1011 10 16 0.00 0.00
4:52 am 04:52 Clear 62 16.7 59 15 90 90 Calm 29.87 1012 10 16 0.00 0.00
5:52 am 05:52 Clear 61 16.1 59 15 93 93 W 5 7 29.89 1012 6 10 0.00 0.00
6:52 am 06:52 Sunny 62 16.7 60 15.6 93 93 Calm 29.90 1012 7 11 0.00 0.00
7:52 am 07:52 Sunny 66 18.9 62 16.7 87 87 NNW 5 7 29.91 1013 10 16 0.00 0.00
8:52 am 08:52 Sunny 69 20.6 62 16.7 78 78 NNW 7 11 29.92 1013 10 16 0.00 0.00
9:52 am 09:52 Mostly Sunny 73 22.8 63 17.2 71 71 Calm 29.93 1014 10 16 0.00 0.00
10:52 am 10:52 Mostly Sunny 76 24.4 64 17.8 67 67 WNW 6 9 29.94 1014 10 16 0.00 0.00
11:52 am 11:52 Partly Cloudy 80 26.7 64 17.8 58 58 NW 8 13 29.95 1014 10 16 0.00 0.00
12:52 pm 12:52 Partly Cloudy 82 27.8 61 16.1 49 49 NW 9 15 29.95 1014 10 16 0.00 0.00
1:52 pm 13:52 Partly Cloudy 81 27.2 62 16.7 53 53 VRB 3 6 29.94 1014 10 16 0.00 0.00
2:52 pm 14:52 Mostly Sunny 84 28.9 58 14.4 41 41 N 9 15 29.94 1014 10 16 0.00 0.00
3:52 pm 15:52 Mostly Sunny 85 29.4 58 14.4 40 40 NW 6 9 29.94 1014 10 16 0.00 0.00
4:52 pm 16:52 Mostly Sunny 85 29.4 59 15 42 42 NW 6 9 29.93 1014 10 16 0.00 0.00
5:52 pm 17:52 Mostly Sunny 83 28.3 59 15 44 44 WSW 7 11 29.93 1014 10 16 0.00 0.00
6:52 pm 18:52 Mostly Sunny 83 28.3 60 15.6 46 46 NW 9 15 29.93 1013 10 16 0.00 0.00
7:52 pm 19:52 Mostly Sunny 82 27.8 61 16.1 49 49 NNW 8 13 29.93 1014 10 16 0.00 0.00
8:52 pm 20:52 Mostly Sunny 78 25.6 61 16.1 56 56 NNW 9 15 29.94 1014 10 16 0.00 0.00
9:52 pm 21:52 Mostly Clear 76 24.4 61 16.1 60 60 NNW 7 11 29.95 1014 10 16 0.00 0.00
10:52 pm 22:52 Partly Cloudy 75 23.9 60 15.6 60 60 NNW 7 11 29.96 1015 10 16 0.00 0.00
11:52 pm 23:52 Partly Cloudy 72 22.2 60 15.6 66 66 N 7 11 29.97 1015 10 16 0.00 0.00

Powered by AerisWeather